Location: Givhans Ferry State Park
(33.0284°N, 80.3868°W)
Time: 22:01:08
(UTC-05:00)

Daily predictions for brighter satellites

Satellite Brightness Start Highest point End
(mag) Time Altitude Azimuth Time Altitude Azimuth Time Altitude Azimuth
SKYMED 2 3.7 18:05:39 10° NNE 18:09:54 54° E 18:14:08 10° S
CZ-4 R/B 4.4 18:06:31 10° SSE 18:10:38 74° ENE 18:14:46 10° N
Meteor 1-11 4.3 18:05:50 10° S 18:11:31 84° E 18:17:17 10° N
Cosmos 1626 2.9 18:08:42 10° SSE 18:12:02 31° E 18:15:22 10° NNE
Aureole 1 Rocket 4.4 18:09:26 10° SSE 18:13:57 33° E 18:19:42 10° NE
Sich 1 3.8 18:11:59 10° SSE 18:15:54 32° E 18:19:50 10° NNE
Cosmos 2219 Rocket 4.4 18:12:36 10° WSW 18:17:03 24° WNW 18:21:31 10° N
CZ-2C R/B 3.5 18:13:07 10° S 18:17:57 51° W 18:22:40 10° NNW
Cosmos 1356 Rocket 3.7 18:15:30 10° SSE 18:19:15 40° E 18:23:00 10° NNE
Lacrosse 5 rocket 1.1 18:18:15 10° NNW 18:22:05 70° NE 18:26:07 10° SE
ALOS 4.0 18:20:48 10° E 18:22:40 12° ENE 18:24:32 10° NE
Cosmos 2333 Rocket 4.2 18:19:08 10° WSW 18:23:50 27° WNW 18:28:34 10° N
Cosmos 1633 Rocket 3.6 18:22:12 10° SSE 18:26:13 36° E 18:30:16 10° NNE
MSX 4.3 18:24:36 10° S 18:30:16 66° W 18:35:58 10° NNW
Cosmos 1726 3.5 18:26:59 10° NNW 18:30:35 43° W 18:34:10 10° SSW
Coronas F rocket 2.1 18:30:30 10° SSE 18:32:29 23° E 18:33:36 17° NE
Cosmos 2278 Rocket 2.9 18:30:18 10° NNW 18:35:51 58° WSW 18:41:24 10° S
FAST Rocket 3.8 18:34:14 10° S 18:36:54 62° E 18:39:34 10° NNE
Cosmos 1455 2.8 18:34:46 10° NNE 18:38:16 35° E 18:41:47 10° SSE
USA 229 DEB 3.7 18:32:41 10° SSW 18:39:28 71° ESE 18:46:20 10° NE
USA 229 3.7 18:32:47 10° SSW 18:39:34 70° ESE 18:46:26 10° NE
Timation 1 Rocket 4.3 18:36:15 10° NNW 18:42:17 78° ENE 18:48:17 10° SSE
Cosmos 1703 3.6 18:38:57 10° SSW 18:42:49 66° W 18:46:42 10° N
Cosmos 1184 Rocket 2.7 18:40:59 10° S 18:44:18 67° E 18:47:37 10° NNE
CZ-4 R/B 4.5 18:42:45 10° SW 18:45:23 18° W 18:48:03 10° NW
SJ-6B 3.4 18:43:10 10° SE 18:46:55 36° ENE 18:50:43 10° N
Iridium 4 Rocket 3.5 18:46:54 10° SSE 18:51:07 38° E 18:55:06 10° NNE
Cosmos 1707 Rocket 3.5 18:51:56 10° N 18:56:17 89° E 19:00:38 10° S
COSMO-SKYMED 1 4.0 18:53:51 10° N 18:57:52 38° WNW 19:01:51 10° SW
OTV 4 3.4 18:56:12 10° WSW 18:57:58 15° SW 18:59:44 10° S
Cosmos 1666 Rocket 4.0 18:58:01 10° SSW 19:02:18 62° W 19:06:38 10° N
Cosmos 2369 Rocket 4.1 19:00:18 10° NNE 19:01:00 12° NNE 19:01:00 12° NNE
SL-16 R/B 3.5 18:58:19 10° SW 19:03:32 39° WNW 19:08:48 10° N
H-2A ROCKET BODY 3.6 18:34:43 10° WSW 19:05:15 69° S 19:09:18 23° ESE
FREGAT/IRIS 2.5 19:02:33 10° SSE 19:05:32 60° ENE 19:08:35 10° N
Haruka 3.8 19:03:43 10° W 19:07:57 79° S 19:16:07 22° E
Resurs 01 Rocket 2.1 19:08:00 10° SE 19:12:15 36° ENE 19:16:10 10° N
Cosmos 923 Rocket 3.9 19:06:54 10° SSW 19:12:07 86° ESE 19:16:59 12° NNE
Cosmos 1933 Rocket 3.6 19:09:29 10° S 19:13:49 58° E 19:16:31 22° NNE
Cosmos 1680 Rocket 3.4 19:13:21 10° S 19:18:33 74° ESE 19:22:05 21° NNE
Cosmos 1655 Rocket 4.3 19:14:07 10° SSE 19:20:05 43° E 19:24:06 20° NNE
Cosmos 1627 Rocket 4.4 19:16:22 10° S 19:22:26 61° E 19:28:28 10° NNE
TIMED 4.4 19:18:24 10° N 19:22:46 68° ENE 19:26:17 15° SSE
OAO 1 4.4 19:19:54 10° WSW 19:25:22 78° SSE 19:26:59 47° E
Lacrosse 4 Rocket 1.7 19:22:05 10° NNW 19:25:16 46° NNE 19:25:16 46° NNE
Genesis I 3.6 19:23:35 10° SSW 19:26:49 48° SSE 19:26:49 48° SSE
FENGYUN 3A 3.5 19:23:05 10° SSE 19:28:21 63° ENE 19:33:39 10° N
Helios 1B rocket 4.0 19:31:28 23° SSE 19:31:28 23° SSE 19:33:10 10° S
Tiangong 1 2.2 19:26:24 10° W 19:28:39 38° WNW 19:28:39 38° WNW
NOSS 3-1 (C) 3.3 19:25:38 10° SSW 19:31:11 62° ESE 19:32:51 44° ENE
Cosmos 1869 3.5 19:28:35 10° NNW 19:32:37 71° W 19:36:37 10° S
Intelsat 5-1 Rocket 4.0 19:30:37 10° SW 19:32:49 17° S 19:33:48 16° SSE
Cosmos 1470 Rocket 3.8 19:31:01 10° SSW 19:35:21 67° W 19:38:13 21° N
Milstar 3 4.3 19:31:43 10° W 19:37:17 28° SSW 19:43:39 10° SE
Cosmos 1943 3.1 19:35:43 10° S 19:41:18 65° ESE 19:41:55 61° ENE
USA 215 3.3 19:40:52 47° E 19:42:10 55° NE 19:48:32 10° NNW
Cosmos 2026 Rocket 3.9 19:43:18 10° S 19:49:32 88° W 19:55:42 10° N
ATLAS 2A CENTAUR R/B 3.4 19:49:58 10° SSW 19:51:15 21° S 19:51:15 21° S
ALOS 2.9 19:55:02 10° S 19:59:35 54° W 20:04:10 10° NNW
Resurs 01 Rocket 4.5 20:45:58 10° SW 20:49:47 14° WNW 20:51:17 10° WNW
